This is the latest recevied weather packets stored in our database for station/object KM4KMS. If no packets are shown the sender has not sent any weather packets the latest 1 day(s).
| Time | Temp. | Humidity | Pressure | Rain* | Wind** | Luminosity | Snow |
|---|---|---|---|---|---|---|---|
| 1777987965 | 16.67° C | 83% | 1009.2 hPa | 0 mm | 1.79 m/s, 182° | 176 W/m² | - |
| 1777987661 | 16.11° C | 82% | 1009.2 hPa | 0 mm | 1.79 m/s, 193° | 169 W/m² | - |
| 1777987358 | 16.11° C | 82% | 1009.3 hPa | 0 mm | 3.13 m/s, 192° | 159 W/m² | - |
| 1777987055 | 16.11° C | 85% | 1009.4 hPa | 0 mm | 1.34 m/s, 146° | 150 W/m² | - |
| 1777986752 | 15.56° C | 86% | 1009.5 hPa | 0 mm | 0.89 m/s, 153° | 127 W/m² | - |
| 1777986450 | 15.56° C | 86% | 1009.3 hPa | 0 mm | 1.34 m/s, 164° | 95 W/m² | - |
| 1777986149 | 15.56° C | 88% | 1009.4 hPa | 0 mm | 1.34 m/s, 163° | 93 W/m² | - |
| 1777985845 | 15.56° C | 90% | 1009.5 hPa | 0 mm | 0.89 m/s, 125° | 79 W/m² | - |
| 1777985543 | 15.56° C | 90% | 1009.7 hPa | 0 mm | 0.89 m/s, 130° | 72 W/m² | - |
| 1777985239 | 15° C | 90% | 1009.8 hPa | 0 mm | 1.34 m/s, 117° | 69 W/m² | - |
| 1777984936 | 15° C | 89% | 1009.7 hPa | 0 mm | 0.89 m/s, 104° | 65 W/m² | - |
| 1777984631 | 15° C | 91% | 1009.8 hPa | 0 mm | 0.45 m/s, 102° | 81 W/m² | - |
| 1777984329 | 15° C | 92% | 1009.8 hPa | 0 mm | 0.45 m/s, 107° | 69 W/m² | - |
| 1777984025 | 15° C | 91% | 1009.8 hPa | 0 mm | 0.45 m/s, 114° | 63 W/m² | - |
| 1777983723 | 15° C | 92% | 1009.6 hPa | 0 mm | 0.45 m/s, 112° | 56 W/m² | - |
| 1777983419 | 15° C | 93% | 1009.5 hPa | 0 mm | 0.45 m/s, 131° | 58 W/m² | - |
| 1777983115 | 14.44° C | 93% | 1009.5 hPa | 0 mm | 0.89 m/s, 113° | 51 W/m² | - |
| 1777982812 | 14.44° C | 94% | 1009.9 hPa | 0 mm | 0.45 m/s, 118° | 42 W/m² | - |
| 1777982507 | 14.44° C | 95% | 1009.6 hPa | 0 mm | 0.89 m/s, 123° | 36 W/m² | - |
| 1777982201 | 14.44° C | 95% | 1009.5 hPa | 0 mm | 0.89 m/s, 113° | 35 W/m² | - |
| 1777981899 | 14.44° C | 97% | 1009.5 hPa | 0 mm | 0.45 m/s, 106° | 34 W/m² | - |
| 1777981596 | 14.44° C | 96% | 1009.5 hPa | 0 mm | 0 m/s | 29 W/m² | - |
| 1777981293 | 14.44° C | 96% | 1009.3 hPa | 0 mm | 0 m/s | 28 W/m² | - |
| 1777980989 | 14.44° C | 96% | 1009.6 hPa | 0 mm | 0 m/s | 23 W/m² | - |
| 1777980686 | 13.89° C | 95% | 1009.4 hPa | 0 mm | 0 m/s | 26 W/m² | - |
* Rain latest hour (hover to see other rain measurements)
** Current wind speed in m/s (hover to see current wind gust speed)